Weather History for Rayong, Thailand

Change the Weather History Date:

Saturday, November 2, 2013

  Actual Average Record
Temperature  
Mean Temperature 85 °F -  
Max Temperature 93 °F 88 °F 93 °F (2006)
Min Temperature 77 °F 74 °F 73 °F (1997)
Cooling Degree Days 20    
Growing Degree Days 35 (Base 50)    
Moisture  
Dew Point 73 °F    
Average Humidity 73    
Maximum Humidity 89    
Minimum Humidity 49    
Precipitation  
Precipitation 0.00 in - - ()
Sea Level Pressure  
Sea Level Pressure 29.83 in    
Wind  
Wind Speed 3 mph ()    
Max Wind Speed 9 mph    
Max Gust Speed -    
Visibility 5.1 miles    
Events      
Averages and records for this station are not official NWS values.
T = Trace of Precipitation, MM = Missing Value Source: Averaged Metar Reports

Daily Weather History Graph

Daily Weather History Graph

Search for Another Location

Airport:

Trip Planner

Search our weather history database for the weather conditions in past years. The results will help you decide how hot, cold, wet, or windy it might be!

Date:

Astronomy

Nov. 02, 2013 Rise Set
Actual Time 6:09 AM ICT 5:49 PM ICT
Civil Twilight 5:47 AM ICT 6:11 PM ICT
Nautical Twilight 5:22 AM ICT 6:36 PM ICT
Astronomical Twilight 4:57 AM ICT 7:01 PM ICT
Moon 4:45 AM ICT (11/2) 4:51 PM ICT (11/2)
Length of Visible Light 12h 23m
Length of Day
11h 39m
Waning Crescent, 2% of the Moon is Illuminated
Nov 2
Waning Crescent
Nov 3
New
Nov 10
First Quarter
Nov 17
Full
Nov 26
Last Quarter

Hourly Weather History & Observations

Time (ICT) Temp. Heat Index Dew Point Humidity Pressure Visibility Wind Dir Wind Speed Gust Speed Precip Events Conditions
12:00 AM 78.8 °F - 73.4 °F 83% 29.86 in 3.7 mi NNE 2.3 mph - N/A   Scattered Clouds
12:30 AM 77.0 °F - 73.4 °F 89% 29.83 in 3.7 mi ENE 2.3 mph - N/A   Scattered Clouds
1:00 AM 77.0 °F - 73.4 °F 89% 29.83 in 3.7 mi NNE 2.3 mph - N/A   Scattered Clouds
1:30 AM 77.0 °F - 73.4 °F 89% 29.83 in 3.7 mi NNE 2.3 mph - N/A   Scattered Clouds
2:00 AM 77.0 °F - 73.4 °F 89% 29.80 in 3.7 mi NNE 2.3 mph - N/A   Scattered Clouds
2:30 AM 77.0 °F - 73.4 °F 89% 29.80 in 3.7 mi NNE 2.3 mph - N/A   Scattered Clouds
4:30 AM 77.0 °F - 71.6 °F 83% 29.80 in 3.7 mi NNE 2.3 mph - N/A   Scattered Clouds
5:00 AM 77.0 °F - 73.4 °F 89% 29.80 in 3.7 mi ENE 2.3 mph - N/A   Scattered Clouds
5:30 AM 77.0 °F - 71.6 °F 83% 29.80 in 3.7 mi NNE 2.3 mph - N/A   Scattered Clouds
6:00 AM 77.0 °F - 73.4 °F 89% 29.83 in 3.1 mi ENE 2.3 mph - N/A   Scattered Clouds
6:30 AM 77.0 °F - 73.4 °F 89% 29.83 in 3.1 mi North 2.3 mph - N/A   Scattered Clouds
7:00 AM 77.0 °F - 73.4 °F 89% 29.86 in 3.1 mi NNE 2.3 mph - N/A   Scattered Clouds
7:30 AM 78.8 °F - 73.4 °F 83% 29.86 in 3.1 mi NNE 2.3 mph - N/A   Scattered Clouds
8:00 AM 82.4 °F 88.2 °F 73.4 °F 74% 29.86 in 3.1 mi ENE 2.3 mph - N/A   Scattered Clouds
8:30 AM 82.4 °F 88.2 °F 73.4 °F 74% 29.86 in 3.7 mi NNE 3.5 mph - N/A   Scattered Clouds
9:00 AM 87.8 °F 93.8 °F 71.6 °F 58% 29.86 in 5.0 mi ENE 6.9 mph - N/A   Scattered Clouds
9:30 AM 89.6 °F 96.2 °F 71.6 °F 55% 29.89 in 5.6 mi East 4.6 mph - N/A   Scattered Clouds
10:00 AM 89.6 °F 96.2 °F 71.6 °F 55% 29.89 in 6.2 mi East 3.5 mph - N/A   Scattered Clouds
10:30 AM 91.4 °F 98.4 °F 71.6 °F 52% 29.89 in 6.2 mi NE 3.5 mph - N/A   Scattered Clouds
11:00 AM 91.4 °F 98.4 °F 71.6 °F 52% 29.86 in 6.2 mi East 3.5 mph - N/A   Scattered Clouds
11:30 AM 91.4 °F 98.4 °F 71.6 °F 52% 29.86 in 6.2 mi NE 3.5 mph - N/A   Scattered Clouds
12:00 PM 93.2 °F 100.5 °F 71.6 °F 49% 29.86 in 6.2 mi NNE 3.5 mph - N/A   Scattered Clouds
12:30 PM 93.2 °F 102.4 °F 73.4 °F 52% 29.83 in 6.2 mi ENE 3.5 mph - N/A   Scattered Clouds
1:00 PM 91.4 °F 102.5 °F 75.2 °F 59% 29.80 in 6.2 mi SSW 6.9 mph - N/A   Scattered Clouds
1:30 PM 91.4 °F 100.1 °F 73.4 °F 55% 29.80 in 6.2 mi SW 6.9 mph - N/A   Scattered Clouds
2:00 PM 91.4 °F 100.1 °F 73.4 °F 55% 29.80 in 6.2 mi South 9.2 mph - N/A   Scattered Clouds
2:30 PM 89.6 °F 96.2 °F 71.6 °F 55% 29.77 in 6.2 mi South 6.9 mph - N/A   Scattered Clouds
3:00 PM 89.6 °F 96.2 °F 71.6 °F 55% 29.77 in 6.2 mi South 6.9 mph - N/A   Scattered Clouds
3:30 PM 89.6 °F 96.2 °F 71.6 °F 55% 29.77 in 6.2 mi South 6.9 mph - N/A   Scattered Clouds
4:00 PM 89.6 °F 98.2 °F 73.4 °F 59% 29.77 in 6.2 mi SSE 4.6 mph - N/A   Scattered Clouds
4:30 PM 89.6 °F 98.2 °F 73.4 °F 59% 29.77 in 6.2 mi SSW 6.9 mph - N/A   Scattered Clouds
5:00 PM 87.8 °F 95.6 °F 73.4 °F 62% 29.77 in 6.2 mi SSW 6.9 mph - N/A   Scattered Clouds
5:30 PM 86.0 °F 95.1 °F 75.2 °F 70% 29.77 in 6.2 mi SSW 4.6 mph - N/A   Scattered Clouds
6:00 PM 84.2 °F 92.3 °F 75.2 °F 74% 29.77 in 5.6 mi SW 4.6 mph - N/A   Scattered Clouds
6:30 PM 82.4 °F 88.2 °F 73.4 °F 74% 29.80 in 5.6 mi WSW 3.5 mph - N/A   Scattered Clouds
7:00 PM 82.4 °F 88.2 °F 73.4 °F 74% 29.80 in 5.6 mi SW 3.5 mph - N/A   Scattered Clouds
7:30 PM 82.4 °F 88.2 °F 73.4 °F 74% 29.80 in 5.6 mi Calm Calm - N/A   Scattered Clouds
8:00 PM 80.6 °F 86.2 °F 75.2 °F 84% 29.83 in 5.6 mi Calm Calm - N/A   Scattered Clouds
8:30 PM 80.6 °F 86.2 °F 75.2 °F 84% 29.83 in 5.6 mi Calm Calm - N/A   Scattered Clouds
9:00 PM 80.6 °F 86.2 °F 75.2 °F 84% 29.86 in 5.6 mi Calm Calm - N/A   Scattered Clouds
9:30 PM 78.8 °F - 75.2 °F 89% 29.86 in 5.6 mi NNW 3.5 mph - N/A   Scattered Clouds
10:00 PM 78.8 °F - 75.2 °F 89% 29.86 in 5.6 mi North 3.5 mph - N/A   Scattered Clouds
10:30 PM 78.8 °F - 75.2 °F 89% 29.86 in 5.6 mi North 2.3 mph - N/A   Scattered Clouds
11:00 PM 78.8 °F - 73.4 °F 83% 29.86 in 5.0 mi North 3.5 mph - N/A   Scattered Clouds
11:30 PM 77.0 °F - 73.4 °F 89% 29.86 in 4.3 mi NNW 4.6 mph - N/A   Scattered Clouds